Regional Weather Roundup
Issued by NWS

Home | Current Version | Previous Version | Text Only | Print | Product List | Glossary Off
Versions: 1 2 3 4 5 6 7 8 9 10 11 12 13 14 15 16 17 18 19 20 21 22 23 24 25 26 27 28 29 30 31 32 33 34 35 36 37 38 39 40 41 42 43 44 45 46 47 48 49 50

000
ASUS45 KABQ 290101
RWRNM
NEW MEXICO REGIONAL WEATHER ROUNDUP
NATIONAL WEATHER SERVICE ALBUQUERQUE NM
700 PM MDT FRI APR 28 2017

NOTE: "FAIR" MEANS FEW OR NO CLOUDS BELOW 12,000 FEET AGL WITH NO
       SIGNIFICANT WEATHER OR OBSTRUCTIONS TO VISION.

      THIS PRODUCT IS RELEASED AS TWO VERSIONS.  ONE VERSION NEAR
      THE TOP OF THE HOUR CONTAINING PRELIMINARY DATA FROM ALBUQUERQUE
      AND OTHER STATIONS.  A FINAL VERSION WITH ADDITIONAL DATA IS
      ISSUED ABOUT 10 MINUTES AFTER THE HOUR.

NMZ501-503-504-510>518-290200-
NORTHWEST PLATEAU/NORTHCENTRAL MOUNTAINS

CITY           SKY/WX    TMP DP  RH WIND       PRES   REMARKS
FARMINGTON     PTSUNNY   42  30  62 SE13      29.75R
LOS ALAMOS     CLOUDY    36  36 100 SW6       29.77R WCI  31
SANTA FE       CLOUDY    40  37  89 W5        29.74S
TAOS             N/A     39  25  56 W8        29.74F WCI  34
ANGEL FIRE     FAIR      33  25  73 W7        29.76F WCI  27

$$
NMZ402-403-502-505>509-290200-
WESTCENTRAL MOUNTAINS/SOUTHWEST MOUNTAINS

CITY           SKY/WX    TMP DP  RH WIND       PRES   REMARKS
GALLUP         PTSUNNY   42  22  44 NE9       29.76F
GRANTS         LGT SNOW  33  32  96 NW14G21   29.80R WCI  24
SILVER CITY    FAIR      65  41  41 W22G31    29.67S

$$
NMZ407-409-411-412-290200-
SOUTHERN DESERTS

CITY           SKY/WX    TMP DP  RH WIND       PRES   REMARKS
DEMING         MOCLDY    72  42  34 W20G28    29.61R
LAS CRUCES     CLOUDY    76  37  24 W21G35    29.61R
HOLLOMAN AFB   FAIR      77  38  24 SW26G33   29.58F
ALAMOGORDO     MOCLDY    77  36  22 SW10G21   29.57F
T OR C         MOCLDY    56  36  47 NE15      29.64R

$$
NMZ519>523-290200-
CENTRAL VALLEYS/CENTRAL HIGHLANDS

CITY           SKY/WX    TMP DP  RH WIND       PRES   REMARKS
ALBUQUERQUE    MOCLDY    40  39  97 SE10      29.76R WCI  33
DOUBLE EAGLE   LGT RAIN  39  37  93 VRB6      29.77R WCI  35
MORIARTY ARPT  SNOW      34  34  99 CALM      29.76R VSB 1/2
CLINES CORNERS LGT SNOW  32  31  96 NW14      29.76R FOG     WCI  22
BELEN          DRIZZLE   40  40 100 NE5       29.76S
SOCORRO        CLOUDY    44  39  84 N15G24    29.74R

$$
NMZ524>526-539-540-290200-
SOUTHCENTRAL MOUNTAINS

CITY           SKY/WX    TMP DP  RH WIND       PRES   REMARKS
RUIDOSO        NOT AVBL

$$
NMZ527>531-290200-
NORTHEAST HIGHLANDS/NORTHEAST PLAINS

CITY           SKY/WX    TMP DP  RH WIND       PRES   REMARKS
LAS VEGAS      CLOUDY    37  34  89 S8        29.70F WCI  31
RATON          MOCLDY    41  34  76 E5        29.71S
CLAYTON        LGT RAIN  42  41  96 SW7       29.75S

$$
NMZ532>537-290200-
EASTCENTRAL PLAINS

CITY           SKY/WX    TMP DP  RH WIND       PRES   REMARKS
SANTA ROSA     CLOUDY    50  34  53 NW17G24   29.73R
TUCUMCARI      LGT RAIN  52  42  69 NE14      29.68S
CANNON AFB     FAIR      53  38  57 NE30G37   29.65R
CLOVIS AIRPORT FAIR      54  36  50 N28G38    29.68R

$$
NMZ028-029-538-290200-
SOUTHEAST PLAINS

CITY           SKY/WX    TMP DP  RH WIND       PRES   REMARKS
ROSWELL        FAIR      65  35  33 N28G33    29.62R
ARTESIA        FAIR      82  37  20 N15G23    29.56R
CARLSBAD       FAIR      85  31  14 W8        29.49F
HOBBS          FAIR      81  30  16 SW8       29.57S


$$




USA.gov is the U.S. government's official web portal to all federal, state and local government web resources and services.